CW0230 Weather Reports


Display with metric or nautical units.
time (UTC)temp
F
wind
direction
speed
MPH
gust
MPH
rain 1hr
in
rain 24hr
in
rain mn
in
humidity
%
barometer
mb
20260507202005 56 136 2.0 3.0 0.00 0.00 0.00 58 1015.0
20260507200006 57 80 2.0 5.0 0.00 0.00 0.00 56 1014.8
20260507195004 57 87 1.0 3.0 0.00 0.00 0.00 56 1014.7
20260507194005 57 128 2.0 3.0 0.00 0.00 0.00 56 1014.6
20260507193504 57 128 0.0 3.0 0.00 0.00 0.00 57 1014.5
20260507192505 57 136 1.0 3.0 0.00 0.00 0.00 55 1014.6
20260507191004 57 114 2.0 5.0 0.00 0.00 0.00 54 1014.6
20260507190504 57 128 2.0 6.0 0.00 0.00 0.00 55 1014.6
20260507185504 58 173 3.0 7.0 0.00 0.00 0.00 58 1014.6
20260507184004 58 147 4.0 7.0 0.00 0.00 0.00 57 1014.6
20260507182504 58 158 3.0 8.0 0.00 0.00 0.00 58 1014.5
20260507181504 59 146 3.0 8.0 0.00 0.00 0.00 57 1014.5
20260507180005 59 147 3.0 8.0 0.00 0.00 0.00 55 1014.4
20260507175005 59 149 5.0 8.0 0.00 0.00 0.00 54 1014.3
20260507174504 59 156 5.0 8.0 0.00 0.00 0.00 55 1014.4
20260507174004 60 168 4.0 8.0 0.00 0.00 0.00 54 1014.4
20260507173505 60 171 4.0 9.0 0.00 0.00 0.00 53 1014.4
20260507172504 60 142 6.0 10.0 0.00 0.00 0.00 51 1014.4
20260507172005 61 135 6.0 10.0 0.00 0.00 0.00 51 1014.4
20260507170505 61 197 3.0 9.0 0.00 0.00 0.00 53 1014.3
20260507165504 61 165 3.0 12.0 0.00 0.00 0.00 53 1014.4
20260507165005 61 155 6.0 12.0 0.00 0.00 0.00 54 1014.4
20260507164504 61 153 5.0 9.0 0.00 0.00 0.00 53 1014.3
20260507164005 61 164 5.0 10.0 0.00 0.00 0.00 54 1014.4
20260507163504 61 149 5.0 12.0 0.00 0.00 0.00 54 1014.4
20260507155504 61 135 6.0 12.0 0.00 0.00 0.00 55 1014.5
20260507155005 61 115 6.0 12.0 0.00 0.00 0.00 55 1014.5
20260507154504 61 137 5.0 12.0 0.00 0.00 0.00 55 1014.4
20260507152504 63 159 7.0 14.0 0.00 0.00 0.00 53 1014.5
20260507152004 63 158 6.0 14.0 0.00 0.00 0.00 52 1014.6
20260507151005 63 165 7.0 14.0 0.00 0.00 0.00 54 1014.6
20260507150505 63 139 6.0 13.0 0.00 0.00 0.00 55 1014.6
20260507144504 61 155 6.0 12.0 0.00 0.00 0.00 57 1014.8
20260507143504 61 149 6.0 16.0 0.00 0.00 0.00 57 1014.8
20260507142505 60 145 6.0 12.0 0.00 0.00 0.00 58 1014.9
20260507142004 61 149 6.0 13.0 0.00 0.00 0.00 57 1015.0
20260507141004 62 153 7.0 14.0 0.00 0.00 0.00 55 1015.0
20260507135505 63 145 10.0 16.0 0.00 0.00 0.00 54 1015.0
20260507135004 64 157 7.0 12.0 0.00 0.00 0.00 54 1015.0
20260507134005 64 146 6.0 17.0 0.00 0.00 0.00 52 1014.9
20260507133504 64 142 7.0 17.0 0.00 0.00 0.00 54 1014.9
20260507132504 64 173 7.0 13.0 0.00 0.00 0.00 54 1015.0
20260507132004 64 154 7.0 14.0 0.00 0.00 0.00 56 1015.0
20260507130505 63 194 8.0 13.0 0.00 0.00 0.00 57 1015.1
20260507130005 62 182 6.0 12.0 0.00 0.00 0.00 59 1015.0
20260507125505 62 191 6.0 17.0 0.00 0.00 0.00 57 1015.1
20260507124504 62 166 6.0 15.0 0.00 0.00 0.00 58 1015.1
20260507123505 61 143 6.0 10.0 0.00 0.00 0.00 57 1015.1
20260507123005 62 167 5.0 10.0 0.00 0.00 0.00 56 1015.1
20260507122504 62 197 5.0 10.0 0.00 0.00 0.00 56 1015.1
20260507122005 62 144 6.0 10.0 0.00 0.00 0.00 55 1015.2
20260507121505 62 170 5.0 10.0 0.00 0.00 0.00 55 1015.2
20260507121005 63 176 6.0 14.0 0.00 0.00 0.00 54 1015.2
20260507120504 63 157 6.0 14.0 0.00 0.00 0.00 55 1015.3
20260507120006 63 152 5.0 13.0 0.00 0.00 0.00 57 1015.3
20260507115505 63 207 6.0 13.0 0.00 0.00 0.00 57 1015.3
20260507115005 63 143 9.0 13.0 0.00 0.00 0.00 54 1015.3
20260507114004 63 181 8.0 13.0 0.00 0.00 0.00 55 1015.3
20260507113505 62 168 7.0 13.0 0.00 0.00 0.00 56 1015.3
20260507112504 62 155 8.0 12.0 0.00 0.00 0.00 55 1015.3
20260507110504 62 159 6.0 12.0 0.00 0.00 0.00 60 1015.4
20260507110005 61 178 6.0 12.0 0.00 0.00 0.00 59 1015.5
20260507105005 61 205 5.0 12.0 0.00 0.00 0.00 59 1015.5
20260507104505 60 189 5.0 12.0 0.00 0.00 0.00 61 1015.5
20260507103504 59 186 6.0 12.0 0.00 0.00 0.00 60 1015.5
20260507103005 59 178 7.0 13.0 0.00 0.00 0.00 59 1015.4
20260507102505 59 165 7.0 13.0 0.00 0.00 0.00 60 1015.4
20260507101504 60 148 7.0 12.0 0.00 0.00 0.00 56 1015.4
20260507100005 62 158 7.0 15.0 0.00 0.00 0.00 58 1015.5
20260507095004 62 150 5.0 12.0 0.00 0.00 0.00 61 1015.4
20260507094505 61 173 6.0 12.0 0.00 0.00 0.00 63 1015.4
20260507092504 59 147 7.0 13.0 0.00 0.00 0.00 65 1015.5
20260507092004 59 134 6.0 13.0 0.00 0.00 0.00 69 1015.4
20260507091504 59 179 6.0 13.0 0.00 0.00 0.00 69 1015.4
20260507091004 58 170 5.0 12.0 0.00 0.00 0.00 70 1015.5
20260507090504 58 151 5.0 12.0 0.00 0.00 0.00 70 1015.5
20260507085504 58 144 5.0 9.0 0.00 0.00 0.00 71 1015.6
20260507084005 57 152 3.0 9.0 0.00 0.00 0.00 74 1015.6
20260507082505 55 132 3.0 8.0 0.00 0.00 0.00 77 1015.6
20260507081004 54 179 2.0 7.0 0.00 0.00 0.00 80 1015.6
20260507075504 53 147 2.0 6.0 0.00 0.00 0.00 81 1015.5
20260507075005 53 87 3.0 6.0 0.00 0.00 0.00 80 1015.5
20260507074005 52 87 3.0 7.0 0.00 0.00 0.00 80 1015.4
20260507073504 52 86 3.0 7.0 0.00 0.00 0.00 80 1015.4
20260507072504 52 133 3.0 6.0 0.00 0.00 0.00 80 1015.4
20260507070009 51 123 3.0 7.0 0.00 0.00 0.00 80 1015.3
20260507064505 50 135 2.0 6.0 0.00 0.00 0.00 82 1015.2
20260507064005 50 114 2.0 6.0 0.00 0.00 0.00 82 1015.2
20260507063505 49 131 1.0 3.0 0.00 0.00 0.00 83 1015.2
20260507062005 49 139 2.0 3.0 0.00 0.00 0.00 82 1015.4
20260507061504 48 146 2.0 3.0 0.00 0.00 0.00 82 1015.3
20260507061004 48 146 2.0 3.0 0.00 0.00 0.00 82 1015.3
20260507055504 48 123 1.0 5.0 0.00 0.00 0.00 82 1015.1
20260507052004 48 107 1.0 2.0 0.00 0.00 0.00 80 1014.8
20260507050505 48 117 2.0 3.0 0.00 0.00 0.00 80 1014.9
20260507050006 48 100 1.0 3.0 0.00 0.00 0.00 79 1014.8
20260507043504 48 151 2.0 7.0 0.00 0.00 0.00 78 1014.7
20260507042505 48 120 2.0 6.0 0.00 0.00 0.00 78 1014.6
20260507042004 49 77 2.0 6.0 0.00 0.00 0.00 77 1014.7
20260507041504 49 97 2.0 6.0 0.00 0.00 0.00 77 1014.7
20260507041004 49 105 2.0 6.0 0.00 0.00 0.00 77 1014.7
20260507035504 49 90 3.0 7.0 0.00 0.00 0.00 76 1014.7
20260507035004 49 98 1.0 6.0 0.00 0.00 0.00 76 1014.7
20260507033505 49 143 1.0 3.0 0.00 0.00 0.00 75 1014.6
20260507032504 49 117 1.0 3.0 0.00 0.00 0.00 75 1014.6
20260507032004 49 135 2.0 5.0 0.00 0.00 0.00 74 1014.7
20260507031505 49 118 1.0 5.0 0.00 0.00 0.00 74 1014.7
20260507030504 49 79 2.0 5.0 0.00 0.00 0.00 74 1014.6
20260507025005 49 96 1.0 7.0 0.00 0.00 0.00 73 1014.7
20260507023005 49 115 1.0 5.0 0.00 0.00 0.00 73 1014.6
20260507022505 49 98 2.0 5.0 0.00 0.00 0.00 73 1014.6
20260507022004 49 116 1.0 6.0 0.00 0.00 0.00 73 1014.6
20260507021005 50 115 2.0 5.0 0.00 0.00 0.00 72 1014.6
20260507015505 50 95 1.0 5.0 0.00 0.00 0.00 72 1014.6
20260507015005 50 93 2.0 3.0 0.00 0.00 0.00 72 1014.7
20260507014504 50 81 2.0 3.0 0.00 0.00 0.00 72 1014.6
20260507013505 50 74 0.0 5.0 0.00 0.00 0.00 72 1014.7
20260507013005 50 89 2.0 7.0 0.00 0.00 0.00 71 1014.6
20260507012505 50 111 2.0 7.0 0.00 0.00 0.00 71 1014.6
20260507011005 51 79 1.0 3.0 0.00 0.00 0.00 71 1014.6
20260507010005 51 78 1.0 5.0 0.00 0.00 0.00 71 1014.6
20260507005505 51 83 1.0 5.0 0.00 0.00 0.00 71 1014.5
20260507004505 51 121 0.0 3.0 0.00 0.00 0.00 71 1014.6
20260507002505 51 117 1.0 5.0 0.00 0.00 0.00 71 1014.7
20260507002004 51 74 1.0 3.0 0.00 0.00 0.00 72 1014.7
20260507001505 51 72 1.0 3.0 0.00 0.00 0.00 72 1014.7
20260507001005 50 77 2.0 3.0 0.00 0.00 0.00 72 1014.7
20260506233505 50 126 0.0 0.0 0.00 0.00 0.00 79 1014.7
20260506232505 50 126 0.0 1.0 0.00 0.00 0.00 80 1014.7
20260506231504 50 126 0.0 1.0 0.00 0.00 0.00 80 1014.7
20260506231004 50 126 0.0 1.0 0.00 0.00 0.00 80 1014.7
20260506230504 50 126 0.0 1.0 0.00 0.00 0.00 81 1014.7
20260506230004 50 126 0.0 1.0 0.00 0.00 0.00 82 1014.8
20260506225504 50 126 0.0 0.0 0.00 0.00 0.00 81 1014.7
20260506224504 50 126 0.0 0.0 0.00 0.00 0.00 81 1014.8
20260506223505 50 126 0.0 0.0 0.00 0.00 0.00 80 1014.6
20260506221504 51 126 0.0 0.0 0.00 0.00 0.00 79 1014.6
20260506220504 51 126 0.0 1.0 0.00 0.00 0.00 78 1014.6
20260506215504 51 126 0.0 2.0 0.00 0.00 0.00 77 1014.5
20260506214505 52 126 0.0 3.0 0.00 0.00 0.00 76 1014.5
20260506214005 52 127 0.0 2.0 0.00 0.00 0.00 76 1014.5
20260506213005 52 127 0.0 2.0 0.00 0.00 0.00 75 1014.6
20260506211005 53 138 1.0 3.0 0.00 0.00 0.00 75 1014.4
20260506210504 54 144 1.0 3.0 0.00 0.00 0.00 74 1014.4
20260506205504 54 144 1.0 2.0 0.00 0.00 0.00 74 1014.3
20260506203504 54 144 1.0 2.0 0.00 0.00 0.00 73 1014.2